SCP
0 0 0 0 0 0 0 0 0 0 0 0 0 0 0 0 0 0 0 0 0 0
0 0 0 0 0 0 0 0 0 0 0 0 0 0 0 0 0 0 0 0 0 0
0 0 0 0 0 0 0 0 0 0 0 0 0 0 0 0 0 0 0 0 0 0
0 0 0 0 0 0 0 0 0 0 0 0 0 0 0 0 0 0 0 0 0 0
0 0 0 0 0 0 0 0 0 0 0 0 0 0 0 0 0 0 0 0 0 0
0 0 0 0 0 0 0 0 0 0 0 0 0 0 0 0 0 0 0 0 0 0
0 0 0 0 0 0 0 0 0 0 0 0 0 0 0 0 0 0 0 0 0 0
0 0 0 0 0 0 0 0 0 0 0 0 0 0 0 0 0 0 0 0 0 0
0 0 0 0 0 0 0 0 0 0 0 0 0 0 0 0 0 0 0 0 0 0
0 0 0 0 0 0 0 0 0 0 0 0 0 0 0 0 0 0 0 0 0 0
0 0 0 0 0 0 0 0 0 0 0 0 0 0 0 0 0 0 0 0 0 0
0 0 0 0 0 0 0 0 0 0 0 0 0 0 0 0 0 0 0 0 0 0
0 0 0 0 0 0 0 0 0 0 0 0 0 0 0 0 0 0 0 0 0 -0
0 0 0 0 0 0 0 0 0 0 0 0 0 0 0 0 0 0 0 0 0 0
Wind_Speed_500mb
82 85 88 87 87 84 82 74 68 67 61 52 43 42 44 45 46 45 42 36 34 35
83 85 89 88 89 87 79 71 70 67 61 53 44 43 47 47 47 46 39 33 33 37
86 83 88 89 88 88 82 79 74 68 61 54 46 46 49 49 47 43 36 35 36 39
97 93 91 90 91 90 86 82 76 68 61 54 48 49 51 49 46 41 35 36 41 44
104 102 96 92 94 91 86 82 76 70 64 57 53 55 52 48 45 42 37 39 44 47
109 105 102 96 91 88 84 84 78 72 64 59 57 56 51 46 43 41 40 40 45 51
104 104 106 99 89 85 85 86 80 73 67 65 60 56 50 46 43 40 40 43 48 55
95 97 102 97 86 80 84 85 81 77 72 69 64 56 48 46 44 40 42 45 52 57
93 95 97 92 86 80 84 87 85 83 77 68 60 52 49 48 43 43 42 48 54 55
88 91 92 88 85 85 90 90 92 85 74 65 56 50 48 43 48 43 45 50 50 52
85 86 86 85 84 86 89 93 93 86 76 64 52 48 47 50 44 43 47 45 48 45
82 84 85 85 86 87 93 97 95 83 71 61 53 52 54 49 41 43 42 42 41 39
80 80 82 83 88 90 90 94 91 79 69 54 51 59 54 45 39 39 37 37 39 38
76 78 78 84 88 92 96 99 90 78 65 52 62 53 51 41 39 32 31 36 39 39
Wind_Direction_500mb
232 233 233 235 237 236 237 235 232 232 235 240 247 264 270 276 283 287 291 293 294 298
232 233 232 234 238 236 236 232 229 232 234 237 245 260 267 273 281 286 287 288 293 298
232 234 236 236 237 235 233 230 230 230 231 236 245 258 265 273 278 281 282 286 291 292
232 232 235 237 237 235 232 230 229 230 231 237 246 256 263 271 276 275 277 282 285 289
236 236 236 237 236 234 230 229 229 228 230 235 243 252 259 265 270 272 276 281 285 291
240 238 239 238 236 232 228 228 227 227 229 235 242 249 256 261 267 272 278 283 290 295
243 242 241 239 235 230 227 227 225 225 228 233 241 247 253 260 267 270 278 287 293 296
244 243 241 240 234 229 226 225 223 223 225 232 238 243 249 260 266 270 280 290 294 296
243 241 239 237 231 226 224 223 222 223 224 230 236 242 250 258 263 272 284 292 296 300
242 239 238 233 227 224 222 219 219 221 224 229 234 241 251 265 268 279 288 293 299 299
239 238 235 231 225 222 220 218 217 218 221 225 227 241 257 260 268 278 286 292 299 300
237 235 231 226 223 220 217 214 215 216 218 220 228 241 246 256 266 276 282 294 297 302
235 234 230 227 222 217 215 215 213 213 215 216 234 238 248 250 257 267 283 288 296 312
236 234 230 224 220 215 209 209 210 210 211 221 232 236 241 247 251 265 275 288 298 303
Wind_Speed_850mb
82 85 88 87 87 84 82 74 68 67 61 52 43 42 44 45 46 45 42 36 34 35
83 85 89 88 89 87 79 71 70 67 61 53 44 43 47 47 47 46 39 33 33 37
86 83 88 89 88 88 82 79 74 68 61 54 46 46 49 49 47 43 36 35 36 39
97 93 91 90 91 90 86 82 76 68 61 54 48 49 51 49 46 41 35 36 41 44
104 102 96 92 94 91 86 82 76 70 64 57 53 55 52 48 45 42 37 39 44 47
109 105 102 96 91 88 84 84 78 72 64 59 57 56 51 46 43 41 40 40 45 51
104 104 106 99 89 85 85 86 80 73 67 65 60 56 50 46 43 40 40 43 48 55
95 97 102 97 86 80 84 85 81 77 72 69 64 56 48 46 44 40 42 45 52 57
93 95 97 92 86 80 84 87 85 83 77 68 60 52 49 48 43 43 42 48 54 55
88 91 92 88 85 85 90 90 92 85 74 65 56 50 48 43 48 43 45 50 50 52
85 86 86 85 84 86 89 93 93 86 76 64 52 48 47 50 44 43 47 45 48 45
82 84 85 85 86 87 93 97 95 83 71 61 53 52 54 49 41 43 42 42 41 39
80 80 82 83 88 90 90 94 91 79 69 54 51 59 54 45 39 39 37 37 39 38
76 78 78 84 88 92 96 99 90 78 65 52 62 53 51 41 39 32 31 36 39 39
Wind_Direction_850mb
232 233 233 235 237 236 237 235 232 232 235 240 247 264 270 276 283 287 291 293 294 298
232 233 232 234 238 236 236 232 229 232 234 237 245 260 267 273 281 286 287 288 293 298
232 234 236 236 237 235 233 230 230 230 231 236 245 258 265 273 278 281 282 286 291 292
232 232 235 237 237 235 232 230 229 230 231 237 246 256 263 271 276 275 277 282 285 289
236 236 236 237 236 234 230 229 229 228 230 235 243 252 259 265 270 272 276 281 285 291
240 238 239 238 236 232 228 228 227 227 229 235 242 249 256 261 267 272 278 283 290 295
243 242 241 239 235 230 227 227 225 225 228 233 241 247 253 260 267 270 278 287 293 296
244 243 241 240 234 229 226 225 223 223 225 232 238 243 249 260 266 270 280 290 294 296
243 241 239 237 231 226 224 223 222 223 224 230 236 242 250 258 263 272 284 292 296 300
242 239 238 233 227 224 222 219 219 221 224 229 234 241 251 265 268 279 288 293 299 299
239 238 235 231 225 222 220 218 217 218 221 225 227 241 257 260 268 278 286 292 299 300
237 235 231 226 223 220 217 214 215 216 218 220 228 241 246 256 266 276 282 294 297 302
235 234 230 227 222 217 215 215 213 213 215 216 234 238 248 250 257 267 283 288 296 312
236 234 230 224 220 215 209 209 210 210 211 221 232 236 241 247 251 265 275 288 298 303